AirNav   Air Wisconsin pilot careers
 
 928 users online  

ID74 Sulphur Creek Ranch Airport
Cascade, Idaho, USA

GOING TO CASCADE?


FAA INFORMATION EFFECTIVE 24 MAY 2018

Location

FAA Identifier: ID74
Lat/Long: 44-32-11.6510N / 115-21-03.3870W
44-32.194183N / 115-21.056450W
44.5365697 / -115.3509408
(estimated)
Elevation: 5835 ft. / 1779 m (estimated)
Variation: 16E (1995)
From city: 50 miles E of CASCADE, ID
Time zone: UTC -6 (UTC -7 during Standard Time)
Zip code: 83611

Airport Operations

Airport use: Private use. Permission required prior to landing
Activation date: 05/1996
Control tower: no
ARTCC: SALT LAKE CITY CENTER
FSS: BOISE FLIGHT SERVICE STATION
Attendance: JUN-NOV 24 HOURS/DAY
Wind indicator: lighted
Segmented circle: no

Nearby radio navigation aids

VOR radial/distance  VOR name  Freq  Var
DNJr092/39.0DONNELLY VOR/DME116.2019E

Airport Services

Runway Information

Runway 10/28

Dimensions: 3300 x 40 ft. / 1006 x 12 m
Surface: gravel/turf, in good condition
Operational restrictions: LAND TO THE WEST; TAKEOFF TO THE EAST.
RUNWAY 10  RUNWAY 28
Traffic pattern: leftleft
Obstructions: treestrees

Airport Ownership and Management from official FAA records

Ownership: Privately-owned
Owner: TOM T ALLEGREZZA
7153 W EMERALD
BOISE, ID 83704
Phone 208-377-1188
Manager: 7153 W EMERALD
BOISE ID 83704
208-377-1188
Phone 208-377-1188

Instrument Procedures

There are no published instrument procedures at ID74.

Some nearby airports with instrument procedures:

KMYL - Mc Call Municipal Airport (38 nm NW)
KBOI - Boise Air Terminal/Gowen Field (69 nm SW)
KSMN - Lemhi County Airport (72 nm NE)
S87 - Weiser Municipal Airport (72 nm W)
KMAN - Nampa Municipal Airport (76 nm SW)
 
Loc | Ops | Rwys | IFR | FBO | Links
Com | Nav | Svcs | Stats | Notes

AirNav Hotels Sweepstakes
 
Area around ID74 (Sulphur Creek Ranch Airport)
 
Road maps at: MapQuest Bing Google
 
Aerial photo
WARNING: Photo may not be current or correct
Aerial photo of ID74 (Sulphur Creek Ranch Airport)
Photo taken 05-Jul-2008

Do you have a better or more recent aerial photo of Sulphur Creek Ranch Airport that you would like to share? If so, please send us your photo.

 
Sectional chart

 
Airport distance calculator
Flying to Sulphur Creek Ranch Airport? Find the distance to fly.

From to ID74

Sunrise and sunset
Times for 26-May-2018
 Local
(UTC-6)
 Zulu
(UTC)
Morning civil twilight05:2911:29
Sunrise06:0412:04
Sunset21:1303:13
Evening civil twilight21:4803:48

Current date and time
Zulu (UTC)  26-May-2018 17:37:04
Local (UTC-6)  26-May-2018 11:37:04
 
METAR
KSNT 
29nm SE 
261651Z AUTO VRB04KT 17/07 A2993 RMK AO1 SLP046 T01670072
KMYL 
38nm NW 
261651Z AUTO 26006KT 10SM SCT015 14/09 A2992 RMK AO2 SLP105 T01390094
KLLJ 
49nm E 
261655Z AUTO 00000KT 10SM CLR 21/08 A2987 RMK AO2 LTG DSNT W SLP057 T02060078 $
TAF
KMYL 
38nm NW 
261120Z 2612/2712 31010KT P6SM BKN050 TEMPO 2612/2614 1/2SM FG OVC001 FM262000 32010KT P6SM VCTS BKN050CB TEMPO 2622/2702 VRB20G30KT -TSRA BKN050CB FM270200 32010KT P6SM BKN100
NOTAMs
Click for the latest NOTAMs
NOTAMs are issued by the DoD/FAA and will open in a separate window not controlled by AirNav.

 

 
 

Would you like to see your business listed on this page?

 If your business provides an interesting product or service to pilots, flight crews, aircraft, or users of the Sulphur Creek Ranch Airport, you should consider listing it here.  To start the listing process, click on the button below
 
Add a business
 

Other Pages about Sulphur Creek Ranch Airport

www.skypark.org/More_Strips.htm
 
Update a link
 
Copyright © AirNav, LLC. All rights reserved. Privacy Policy  Contact